Location: Sydney
(46.1500°N, 60.1670°W)
Time: 16:26:13
(UTC-03:00)

Iridium 90 - Visible Passes

Search period start: 16 April 2014 00:00
Search period end: 26 April 2014 00:00
Orbit: 748 x 749 km, 86.4° (Epoch: 16 April)

Date Brightness Start Highest point End Pass type
(mag) Time Alt. Az. Time Alt. Az. Time Alt. Az.
16 Apr 8.9 05:02:07 10° NE 05:04:11 12° ENE 05:06:15 10° E visible
17 Apr 8.8 20:35:43 10° WSW 20:38:23 14° WNW 20:41:04 10° NW visible
18 Apr 8.4 05:16:42 10° NNE 05:20:32 21° ENE 05:24:21 10° ESE visible
20 Apr 7.4 05:32:06 10° NNE 05:36:46 36° E 05:41:24 10° SE visible
21 Apr 8.4 04:50:56 10° NNE 04:54:20 18° ENE 04:57:42 10° ESE visible
23 Apr 7.7 05:06:09 10° NNE 05:10:36 30° ENE 05:15:00 10° SE visible
24 Apr 8.5 04:25:17 10° NE 04:28:06 15° ENE 04:30:54 10° ESE visible
25 Apr 6.5 05:21:46 10° N 05:26:44 52° E 05:31:39 10° SSE visible
